Hourly Weather Kozyczkowo

Today, 21 October, Wednesday

Time Temperature Precipitation Wind Pressure Humidity
00:00 +8°C° 0.1 mm 4 mps 743 mmHg 83%
01:00 +8°C° 0.1 mm 4 mps 743 mmHg 85%
02:00 +7°C° 0 mm 4 mps 743 mmHg 87%
03:00 +7°C° 0 mm 4 mps 743 mmHg 88%
04:00 +7°C° 0 mm 4 mps 743 mmHg 90%
05:00 +8°C° 0 mm 3 mps 743 mmHg 91%
06:00 +8°C° 0 mm 3 mps 743 mmHg 93%
07:00 +9°C° 0 mm 3 mps 743 mmHg 94%
08:00 +9°C° 0 mm 3 mps 743 mmHg 93%
09:00 +10°C° 0 mm 4 mps 743 mmHg 92%
10:00 +11°C° 0 mm 4 mps 743 mmHg 91%
11:00 +11°C° 0.1 mm 4 mps 743 mmHg 92%
12:00 +11°C° 0.1 mm 4 mps 743 mmHg 92%
13:00 +10°C° 0.1 mm 4 mps 743 mmHg 93%
14:00 +10°C° 0.3 mm 4 mps 743 mmHg 90%
15:00 +10°C° 0.3 mm 4 mps 742 mmHg 88%
16:00 +9°C° 0.3 mm 5 mps 742 mmHg 86%
17:00 +9°C° 0.1 mm 5 mps 742 mmHg 83%
18:00 +9°C° 0.1 mm 5 mps 742 mmHg 80%
19:00 +9°C° 0.1 mm 5 mps 742 mmHg 78%
20:00 +9°C° 0.1 mm 5 mps 742 mmHg 77%
21:00 +9°C° 0.1 mm 5 mps 741 mmHg 77%
22:00 +9°C° 0.1 mm 5 mps 741 mmHg 77%
23:00 +9°C° 0 mm 6 mps 741 mmHg 75%

Tomorrow, 22 October, Thursday

Time Temperature Precipitation Wind Pressure Humidity
00:00 +10°C° 0 mm 6 mps 741 mmHg 74%
01:00 +10°C° 0 mm 7 mps 741 mmHg 72%
02:00 +10°C° 0 mm 7 mps 740 mmHg 73%
03:00 +11°C° 0 mm 7 mps 740 mmHg 74%
04:00 +11°C° 0 mm 7 mps 740 mmHg 74%
05:00 +11°C° 0 mm 8 mps 740 mmHg 77%
06:00 +12°C° 0 mm 8 mps 740 mmHg 79%
07:00 +12°C° 0 mm 8 mps 741 mmHg 81%
08:00 +12°C° 0 mm 8 mps 741 mmHg 78%
09:00 +13°C° 0 mm 8 mps 742 mmHg 74%
10:00 +15°C° 0 mm 8 mps 742 mmHg 71%
11:00 +15°C° 0 mm 8 mps 742 mmHg 70%
12:00 +16°C° 0 mm 7 mps 743 mmHg 70%
13:00 +17°C° 0 mm 7 mps 743 mmHg 70%
14:00 +16°C° 0 mm 6 mps 743 mmHg 71%
15:00 +16°C° 0 mm 5 mps 743 mmHg 73%
16:00 +15°C° 0 mm 4 mps 743 mmHg 74%
17:00 +15°C° 0 mm 4 mps 743 mmHg 77%
18:00 +14°C° 0 mm 5 mps 743 mmHg 80%
19:00 +14°C° 0 mm 5 mps 743 mmHg 83%
20:00 +14°C° 0 mm 5 mps 743 mmHg 84%
21:00 +13°C° 0 mm 5 mps 743 mmHg 84%
22:00 +13°C° 0 mm 5 mps 743 mmHg 84%
23:00 +13°C° 0 mm 5 mps 742 mmHg 85%

Day after tomorrow, 23 October, Friday

Time Temperature Precipitation Wind Pressure Humidity
00:00 +13°C° 0 mm 5 mps 742 mmHg 86%
01:00 +13°C° 0 mm 5 mps 742 mmHg 86%
02:00 +13°C° 1.2 mm 5 mps 741 mmHg 88%
03:00 +13°C° 1.2 mm 5 mps 741 mmHg 90%
04:00 +13°C° 1.2 mm 5 mps 741 mmHg 92%
05:00 +13°C° 0.7 mm 5 mps 741 mmHg 91%
06:00 +13°C° 0.7 mm 6 mps 741 mmHg 90%
07:00 +13°C° 0.7 mm 6 mps 741 mmHg 89%
08:00 +13°C° 0 mm 6 mps 741 mmHg 84%
09:00 +14°C° 0 mm 7 mps 741 mmHg 78%
10:00 +14°C° 0 mm 7 mps 741 mmHg 73%
11:00 +14°C° 0 mm 7 mps 742 mmHg 71%
12:00 +14°C° 0 mm 6 mps 742 mmHg 69%
13:00 +15°C° 0 mm 6 mps 742 mmHg 67%
14:00 +14°C° 0 mm 5 mps 742 mmHg 70%
15:00 +13°C° 0 mm 4 mps 742 mmHg 73%
16:00 +13°C° 0 mm 4 mps 741 mmHg 76%
17:00 +12°C° 0 mm 3 mps 742 mmHg 80%
18:00 +11°C° 0 mm 3 mps 742 mmHg 84%
19:00 +10°C° 0 mm 2 mps 742 mmHg 88%
20:00 +10°C° 0 mm 2 mps 742 mmHg 88%
21:00 +10°C° 0 mm 2 mps 742 mmHg 89%
22:00 +10°C° 0 mm 2 mps 741 mmHg 89%
23:00 +10°C° 0 mm 2 mps 741 mmHg 90%

24 October, Saturday

Time Temperature Precipitation Wind Pressure Humidity
00:00 +10°C° 0 mm 2 mps 741 mmHg 91%
01:00 +12°C° 0 mm 2 mps 740 mmHg 92%
02:00 +11°C° 0.1 mm 3 mps 740 mmHg 91%
03:00 +11°C° 0.1 mm 3 mps 740 mmHg 91%
04:00 +11°C° 0.1 mm 4 mps 739 mmHg 91%
05:00 +11°C° 0.7 mm 4 mps 739 mmHg 91%
06:00 +11°C° 0.7 mm 4 mps 739 mmHg 91%
07:00 +11°C° 0.7 mm 4 mps 738 mmHg 92%
08:00 +10°C° 1.4 mm 5 mps 738 mmHg 90%
09:00 +9°C° 1.4 mm 6 mps 739 mmHg 87%
10:00 +9°C° 1.4 mm 7 mps 739 mmHg 85%
11:00 +9°C° 0.2 mm 8 mps 739 mmHg 81%
12:00 +9°C° 0.2 mm 8 mps 740 mmHg 76%
13:00 +10°C° 0.2 mm 9 mps 740 mmHg 71%
14:00 +8°C° 0.1 mm 9 mps 741 mmHg 71%
15:00 +8°C° 0.1 mm 9 mps 741 mmHg 71%
16:00 +8°C° 0.1 mm 9 mps 742 mmHg 70%
17:00 +7°C° 0 mm 8 mps 742 mmHg 72%
18:00 +8°C° 0 mm 7 mps 743 mmHg 73%
19:00 +6°C° 0 mm 7 mps 743 mmHg 74%
20:00 +7°C° 0 mm 6 mps 744 mmHg 76%
21:00 +7°C° 0 mm 5 mps 745 mmHg 78%
22:00 +7°C° 0 mm 5 mps 745 mmHg 79%
23:00 +6°C° 0 mm 5 mps 745 mmHg 83%

25 October, Sunday

Time Temperature Precipitation Wind Pressure Humidity
00:00 +6°C° 0 mm 4 mps 746 mmHg 86%
01:00 +6°C° 0 mm 4 mps 746 mmHg 90%
02:00 +6°C° 0 mm 4 mps 746 mmHg 91%
03:00 +5°C° 0 mm 4 mps 746 mmHg 92%
04:00 +5°C° 0 mm 4 mps 746 mmHg 94%
05:00 +5°C° 0 mm 3 mps 746 mmHg 93%
06:00 +5°C° 0 mm 3 mps 747 mmHg 93%
07:00 +5°C° 0 mm 3 mps 747 mmHg 93%
08:00 +7°C° 0 mm 3 mps 747 mmHg 86%
09:00 +8°C° 0 mm 3 mps 747 mmHg 79%
10:00 +9°C° 0 mm 3 mps 748 mmHg 73%
11:00 +10°C° 0 mm 3 mps 747 mmHg 68%
12:00 +11°C° 0 mm 3 mps 747 mmHg 63%
13:00 +11°C° 0 mm 3 mps 747 mmHg 59%
14:00 +11°C° 0 mm 3 mps 747 mmHg 63%
15:00 +10°C° 0 mm 3 mps 747 mmHg 67%
16:00 +10°C° 0 mm 2 mps 747 mmHg 70%
17:00 +9°C° 0 mm 3 mps 747 mmHg 73%
18:00 +9°C° 0 mm 3 mps 747 mmHg 77%
19:00 +7°C° 0 mm 4 mps 747 mmHg 80%
20:00 +7°C° 0 mm 4 mps 747 mmHg 81%
21:00 +8°C° 0 mm 3 mps 747 mmHg 81%
22:00 +7°C° 0 mm 3 mps 747 mmHg 82%
23:00 +6°C° 0 mm 4 mps 747 mmHg 82%

26 October, Monday

Time Temperature Precipitation Wind Pressure Humidity
00:00 +6°C° 0 mm 4 mps 746 mmHg 81%
01:00 +6°C° 0 mm 4 mps 746 mmHg 80%
02:00 +5°C° 0 mm 4 mps 746 mmHg 81%
03:00 +5°C° 0 mm 4 mps 746 mmHg 82%
04:00 +5°C° 0 mm 4 mps 746 mmHg 83%
05:00 +5°C° 0 mm 4 mps 746 mmHg 84%
06:00 +5°C° 0 mm 4 mps 746 mmHg 84%
07:00 +5°C° 0 mm 4 mps 746 mmHg 85%
08:00 +6°C° 0 mm 4 mps 746 mmHg 79%
09:00 +7°C° 0 mm 5 mps 746 mmHg 73%
10:00 +9°C° 0 mm 5 mps 746 mmHg 68%
11:00 +10°C° 0 mm 5 mps 746 mmHg 66%
12:00 +10°C° 0 mm 5 mps 746 mmHg 64%
13:00 +12°C° 0 mm 5 mps 746 mmHg 62%
14:00 +12°C° 0 mm 5 mps 746 mmHg 64%
15:00 +10°C° 0 mm 5 mps 746 mmHg 66%
16:00 +11°C° 0 mm 4 mps 746 mmHg 69%
17:00 +10°C° 0 mm 4 mps 746 mmHg 70%
18:00 +8°C° 0 mm 4 mps 746 mmHg 71%
19:00 +8°C° 0 mm 4 mps 746 mmHg 72%
20:00 +8°C° 0 mm 4 mps 746 mmHg 73%
21:00 +7°C° 0 mm 4 mps 746 mmHg 74%
22:00 +8°C° 0 mm 3 mps 747 mmHg 75%
23:00 +7°C° 0 mm 3 mps 747 mmHg 77%

27 October, Tuesday

Time Temperature Precipitation Wind Pressure Humidity
00:00 +7°C° 0 mm 3 mps 747 mmHg 79%
01:00 +7°C° 0 mm 3 mps 747 mmHg 81%
02:00 +7°C° 0 mm 3 mps 747 mmHg 83%
03:00 +5°C° 0 mm 3 mps 747 mmHg 85%
04:00 +5°C° 0 mm 3 mps 747 mmHg 87%
05:00 +6°C° 0 mm 2 mps 747 mmHg 89%
06:00 +6°C° 0 mm 2 mps 748 mmHg 91%
07:00 +6°C° 0 mm 2 mps 748 mmHg 93%
08:00 +7°C° 0 mm 2 mps 748 mmHg 91%
09:00 +8°C° 0 mm 2 mps 749 mmHg 89%
10:00 +10°C° 0 mm 2 mps 749 mmHg 87%
11:00 +12°C° 0 mm 2 mps 749 mmHg 85%
12:00 +12°C° 0 mm 2 mps 750 mmHg 82%
13:00 +13°C° 0 mm 2 mps 750 mmHg 80%
14:00 +12°C° 0 mm 2 mps 750 mmHg 81%
15:00 +12°C° 0 mm 2 mps 750 mmHg 83%
16:00 +11°C° 0 mm 1 mps 750 mmHg 84%
17:00 +11°C° 0 mm 1 mps 751 mmHg 85%
18:00 +11°C° 0 mm 1 mps 751 mmHg 86%
19:00 +10°C° 0 mm 1 mps 751 mmHg 87%
20:00 +10°C° 0 mm 1 mps 751 mmHg 87%
21:00 +10°C° 0 mm 1 mps 751 mmHg 86%
22:00 +9°C° 0 mm 2 mps 752 mmHg 86%
23:00 +8°C° 0 mm 2 mps 752 mmHg 87%
Show more